Location: Newark
(25.4800°N, 85.7200°E)
Time: 18:34:26
(UTC+00:00)

Transit 4A - Pass Details

Date: 29 August 2019
Orbit: 867 x 978 km, 66.8° (Epoch: 17 October)

Event Time Altitude Azimuth Distance (km) Brightness Sun altitude
Rises 10:07:48 0° 204° (SSW) 3,633 11.3 33.4°
Reaches altitude 10° 10:10:20 10° 204° (SSW) 2,699 10.8 32.8°
Maximum altitude 10:16:41 84° 292° (WNW) 984 8.7 31.4°
Drops below altitude 10° 10:23:06 10° 22° (NNE) 2,724 10.2 29.9°
Sets 10:25:40 0° 23° (NNE) 3,670 10.8 29.3°
